Walnut Ridge, AR

4:46 AM CDT on July 24, 2017 (GMT -0500)
Walnut Ridge Regional

Weather History for KARG - January, 2012

Change the Weather History Date:

Sunday, January 22, 2012

  Actual Average Record
Temperature  
Mean Temperature 48 °F -  
Max Temperature 62 °F 42 °F 64 °F (1997)
Min Temperature 33 °F 27 °F 19 °F (2014)
Degree Days  
Heating Degree Days 18    
Moisture  
Dew Point 43 °F    
Average Humidity 97    
Maximum Humidity 100    
Minimum Humidity 88    
Precipitation  
Precipitation 0.62 in - - ()
Sea Level Pressure  
Sea Level Pressure 29.82 in    
Wind  
Wind Speed 8 mph (SSE)    
Max Wind Speed 24 mph    
Max Gust Speed 45 mph    
Visibility 3 miles    
Events Thunderstorm    
Averages and records for this station are not official NWS values.
T = Trace of Precipitation, MM = Missing Value Source: NWS Daily Summary

Daily Weather History Graph

Daily Weather History Graph

Search for Another Location

Airport or City:

Trip Planner

Search our weather history database for the weather conditions in past years. The results will help you decide how hot, cold, wet, or windy it might be!

Date:

Astronomy

Jan. 22, 2012 Rise Set
Actual Time 7:11 AM CST 5:19 PM CST
Civil Twilight 6:43 AM CST 5:46 PM CST
Nautical Twilight 6:12 AM CST 6:18 PM CST
Astronomical Twilight 5:41 AM CST 6:48 PM CST
Moon 6:28 AM CST (1/22) 5:01 PM CST (1/22)
Length of Visible Light 11h 03m
Length of Day
10h 08m
Waning Crescent, 0% of the Moon is Illuminated
Jan 22
Waning Crescent
Jan 23
New
Jan 30
First Quarter
Feb 7
Full
Feb 14
Last Quarter

Hourly Weather History & Observations

Time (CST) Temp. Windchill Dew Point Humidity Pressure Visibility Wind Dir Wind Speed Gust Speed Precip Events Conditions
12:15 AM 33.8 °F 27.0 °F 32.0 °F 93% 30.04 in 4.0 mi ESE 8.1 mph - N/A   Overcast
12:35 AM 33.8 °F 25.8 °F 32.0 °F 93% 30.03 in 4.0 mi ESE 10.4 mph - N/A   Overcast
12:55 AM 33.8 °F 26.4 °F 32.0 °F 93% 30.03 in 4.0 mi ESE 9.2 mph - N/A   Overcast
1:15 AM 33.8 °F 25.8 °F 33.8 °F 100% 30.02 in 4.0 mi SE 10.4 mph - N/A   Overcast
1:35 AM 33.8 °F 28.6 °F 33.8 °F 100% 30.02 in 4.0 mi SE 5.8 mph - N/A   Overcast
1:55 AM 33.8 °F 27.0 °F 32.0 °F 93% 30.01 in 3.0 mi ESE 8.1 mph - N/A   Overcast
2:15 AM 33.8 °F 27.0 °F 33.8 °F 100% 30.00 in 3.0 mi ESE 8.1 mph - N/A   Overcast
2:35 AM 35.6 °F 28.0 °F 33.8 °F 93% 30.00 in 3.0 mi SE 10.4 mph - N/A   Overcast
2:55 AM 35.6 °F 28.0 °F 33.8 °F 93% 29.99 in 2.5 mi SE 10.4 mph - N/A   Overcast
3:15 AM 35.6 °F 29.9 °F 33.8 °F 93% 29.99 in 1.8 mi SE 6.9 mph - N/A   Overcast
3:35 AM 35.6 °F 28.6 °F 35.6 °F 100% 29.98 in 2.0 mi SSE 9.2 mph - N/A   Overcast
3:55 AM 35.6 °F 29.2 °F 33.8 °F 93% 29.96 in 2.0 mi SSE 8.1 mph - N/A   Overcast
4:15 AM 35.6 °F 30.7 °F 33.8 °F 93% 29.95 in 2.0 mi ESE 5.8 mph - N/A   Overcast
4:35 AM 35.6 °F 30.7 °F 35.6 °F 100% 29.95 in 1.8 mi SSE 5.8 mph - N/A   Overcast
4:55 AM 35.6 °F 29.9 °F 35.6 °F 100% 29.95 in 1.8 mi SE 6.9 mph - N/A   Overcast
5:15 AM 35.6 °F 29.9 °F 33.8 °F 93% 29.94 in 1.5 mi SE 6.9 mph - N/A   Overcast
5:35 AM 35.6 °F 30.7 °F 35.6 °F 100% 29.94 in 1.2 mi SE 5.8 mph - N/A   Overcast
5:55 AM 35.6 °F 30.7 °F 35.6 °F 100% 29.94 in 1.0 mi SE 5.8 mph - N/A   Overcast
6:15 AM 35.6 °F 31.7 °F 35.6 °F 100% 29.94 in 1.2 mi SE 4.6 mph - N/A   Overcast
6:55 AM 35.6 °F 29.9 °F 35.6 °F 100% 29.92 in 1.5 mi ESE 6.9 mph - N/A   Overcast
7:15 AM 35.6 °F 32.8 °F 35.6 °F 100% 29.93 in 1.5 mi SE 3.5 mph - N/A   Overcast
7:35 AM 35.6 °F 32.8 °F 35.6 °F 100% 29.92 in 0.8 mi East 3.5 mph - N/A   Overcast
7:55 AM 35.6 °F 31.7 °F 35.6 °F 100% 29.93 in 0.5 mi ESE 4.6 mph - N/A   Overcast
8:15 AM 37.4 °F 32.8 °F 35.6 °F 93% 29.93 in 0.5 mi ESE 5.8 mph - N/A   Overcast
8:55 AM 37.4 °F 32.1 °F 37.4 °F 100% 29.91 in 0.8 mi ESE 6.9 mph - N/A   Overcast
9:15 AM 37.4 °F 32.1 °F 37.4 °F 100% 29.90 in 0.8 mi SE 6.9 mph - N/A   Overcast
9:55 AM 39.2 °F 34.2 °F 39.2 °F 100% 29.89 in 1.0 mi SSE 6.9 mph - N/A   Overcast
10:15 AM 39.2 °F 34.2 °F 37.4 °F 93% 29.87 in 0.8 mi SSE 6.9 mph - N/A   Overcast
10:35 AM 39.2 °F 33.0 °F 39.2 °F 100% 29.87 in 0.8 mi SSE 9.2 mph - N/A   Overcast
10:55 AM 41.0 °F 36.4 °F 41.0 °F 100% 29.86 in 0.5 mi SSE 6.9 mph - N/A   Overcast
11:15 AM 42.8 °F 38.6 °F 41.0 °F 93% 29.85 in 0.5 mi SSE 6.9 mph - N/A   Overcast
11:35 AM 42.8 °F 37.0 °F 42.8 °F 100% 29.83 in 0.2 mi SSE 10.4 mph - N/A   Overcast
11:55 AM 42.8 °F 38.0 °F 41.0 °F 93% 29.82 in 0.2 mi SSE 8.1 mph - N/A   Overcast
12:15 PM 44.6 °F 40.2 °F 44.6 °F 100% 29.80 in 0.2 mi South 8.1 mph - N/A   Overcast
12:35 PM 44.6 °F 40.7 °F 44.6 °F 100% 29.79 in 0.2 mi SSE 6.9 mph - N/A   Overcast
12:55 PM 44.6 °F 40.2 °F 42.8 °F 93% 29.76 in 0.2 mi SSE 8.1 mph - N/A   Overcast
1:15 PM 44.6 °F 40.7 °F 44.6 °F 100% 29.74 in 0.2 mi SSE 6.9 mph - N/A   Overcast
1:35 PM 46.4 °F 45.2 °F 46.4 °F 100% 29.73 in 0.2 mi SSE 3.5 mph - N/A   Overcast
1:55 PM 46.4 °F 44.3 °F 46.4 °F 100% 29.72 in 0.2 mi SSE 4.6 mph - N/A   Overcast
2:15 PM 48.2 °F - 48.2 °F 100% 29.72 in 0.2 mi Calm Calm - N/A   Overcast
2:35 PM 48.2 °F - 48.2 °F 100% 29.70 in 0.2 mi Calm Calm - N/A   Overcast
2:55 PM 48.2 °F - 46.4 °F 93% 29.69 in 0.2 mi Calm Calm - N/A   Overcast
3:15 PM 48.2 °F - 46.4 °F 93% 29.68 in 0.2 mi Calm Calm - 0.01 in   Overcast
3:35 PM 48.2 °F - 46.4 °F 93% 29.68 in 0.2 mi Calm Calm - 0.01 in   Overcast
3:55 PM 48.2 °F - 46.4 °F 93% 29.66 in 0.2 mi Calm Calm - 0.02 in   Overcast
4:15 PM 48.2 °F - 46.4 °F 93% 29.66 in 0.5 mi Calm Calm - 0.01 in Thunderstorm Overcast
4:35 PM 48.2 °F - 46.4 °F 93% 29.67 in 0.8 mi Calm Calm - 0.01 in   Overcast
4:55 PM 48.2 °F - 46.4 °F 93% 29.66 in 0.5 mi South 3.5 mph - 0.01 in   Overcast
5:15 PM 53.6 °F - 53.6 °F 100% 29.66 in 0.2 mi South 5.8 mph - N/A   Overcast
5:35 PM 60.8 °F - 60.8 °F 100% 29.66 in 5.0 mi South 17.3 mph 23.0 mph 0.01 in   Overcast
6:15 PM 60.8 °F - 60.8 °F 100% 29.61 in 7.0 mi South 16.1 mph 27.6 mph 0.06 in   Overcast
6:35 PM 62.6 °F - 62.6 °F 100% 29.57 in 8.0 mi SSE 23.0 mph 44.9 mph 0.06 in   Mostly Cloudy
6:55 PM 60.8 °F - 60.8 °F 100% 29.56 in 7.0 mi SSE 17.3 mph - 0.06 in   Scattered Clouds
7:15 PM 62.6 °F - 60.8 °F 94% 29.55 in 8.0 mi South 24.2 mph 28.8 mph N/A Thunderstorm Thunderstorm
7:35 PM 60.8 °F - 57.2 °F 88% 29.59 in 10.0 mi WSW 18.4 mph 21.9 mph 0.02 in Thunderstorm Thunderstorm
7:55 PM 59.0 °F - 59.0 °F 100% 29.58 in 9.0 mi SSW 18.4 mph - 0.39 in Thunderstorm Thunderstorm
8:15 PM 57.2 °F - 57.2 °F 100% 29.59 in 10.0 mi South 20.7 mph 28.8 mph 0.04 in Thunderstorm Thunderstorm
8:35 PM 57.2 °F - 57.2 °F 100% 29.59 in 10.0 mi South 17.3 mph - 0.09 in Thunderstorm Overcast
8:55 PM 57.2 °F - 55.4 °F 94% 29.60 in 10.0 mi South 18.4 mph - 0.12 in   Mostly Cloudy
9:15 PM 57.2 °F - 55.4 °F 94% 29.59 in 9.0 mi South 17.3 mph 21.9 mph 0.01 in Thunderstorm Mostly Cloudy
9:35 PM 57.2 °F - 55.4 °F 94% 29.60 in 10.0 mi South 17.3 mph 23.0 mph 0.01 in   Scattered Clouds
9:55 PM 55.4 °F - 55.4 °F 100% 29.58 in 10.0 mi South 13.8 mph - 0.01 in   Clear
10:15 PM 55.4 °F - 55.4 °F 100% 29.59 in 10.0 mi South 15.0 mph - N/A   Clear
10:35 PM 55.4 °F - 55.4 °F 100% 29.58 in 10.0 mi South 15.0 mph - N/A   Clear
10:55 PM 55.4 °F - 55.4 °F 100% 29.57 in 10.0 mi South 12.7 mph - N/A   Clear
11:15 PM 55.4 °F - 55.4 °F 100% 29.57 in 10.0 mi South 16.1 mph - N/A   Clear
11:35 PM 55.4 °F - 53.6 °F 94% 29.57 in 10.0 mi South 16.1 mph - N/A   Clear
11:55 PM 55.4 °F - 53.6 °F 94% 29.58 in 10.0 mi South 18.4 mph - N/A   Clear